| time (UTC) | temp F | wind direction | speed knots | gust knots | rain 1hr in | rain 24hr in | rain mn in | humidity % | barometer mb |
| 20260509044107 | 48 | 344 | 1.7 | 2.6 | 0.00 | 0.00 | 0.00 | 94 | 1019.0 |
| 20260509043608 | 48 | 344 | 1.7 | 2.6 | 0.00 | 0.00 | 0.00 | 94 | 1019.0 |
| 20260509043107 | 48 | 344 | 0.9 | 1.7 | 0.00 | 0.00 | 0.00 | 94 | 1019.0 |
| 20260509041108 | 48 | 5 | 0.9 | 2.6 | 0.00 | 0.00 | 0.00 | 93 | 1018.9 |
| 20260509040607 | 48 | 335 | 1.7 | 2.6 | 0.00 | 0.00 | 0.00 | 93 | 1018.9 |
| 20260509040107 | 48 | 355 | 1.7 | 2.6 | 0.00 | 0.00 | 0.00 | 93 | 1018.8 |
| 20260509034607 | 48 | 356 | 1.7 | 2.6 | 0.00 | 0.00 | 0.00 | 92 | 1018.9 |
| 20260509033107 | 48 | 11 | 0.9 | 2.6 | 0.00 | 0.00 | 0.00 | 92 | 1018.8 |
| 20260509031607 | 48 | 0 | 1.7 | 2.6 | 0.00 | 0.00 | 0.00 | 90 | 1018.7 |
| 20260509031108 | 48 | 1 | 1.7 | 2.6 | 0.00 | 0.00 | 0.00 | 90 | 1018.7 |
| 20260509030608 | 49 | 16 | 1.7 | 2.6 | 0.00 | 0.00 | 0.00 | 90 | 1018.7 |
| 20260509030107 | 49 | 352 | 0.9 | 2.6 | 0.00 | 0.00 | 0.00 | 89 | 1018.7 |
| 20260509024607 | 50 | 22 | 0.9 | 1.7 | 0.00 | 0.00 | 0.00 | 89 | 1018.7 |
| 20260509023607 | 51 | 71 | 0.0 | 1.7 | 0.00 | 0.00 | 0.00 | 90 | 1018.7 |
| 20260509023107 | 51 | 78 | 0.9 | 1.7 | 0.00 | 0.00 | 0.00 | 91 | 1018.7 |
| 20260509021607 | 51 | 107 | 0.9 | 2.6 | 0.00 | 0.00 | 0.00 | 90 | 1018.6 |
| 20260509021108 | 51 | 135 | 0.9 | 2.6 | 0.00 | 0.00 | 0.00 | 90 | 1018.6 |
| 20260509020607 | 52 | 126 | 1.7 | 2.6 | 0.00 | 0.00 | 0.00 | 90 | 1018.6 |
| 20260509020108 | 52 | 146 | 0.9 | 2.6 | 0.00 | 0.00 | 0.00 | 90 | 1018.6 |
| 20260509014608 | 52 | 140 | 0.9 | 2.6 | 0.00 | 0.00 | 0.00 | 90 | 1018.6 |
| 20260509014107 | 52 | 120 | 0.9 | 6.1 | 0.00 | 0.00 | 0.00 | 90 | 1018.6 |
| 20260509013608 | 52 | 140 | 1.7 | 6.1 | 0.00 | 0.00 | 0.00 | 90 | 1018.6 |
| 20260509013107 | 52 | 135 | 2.6 | 4.3 | 0.00 | 0.00 | 0.00 | 90 | 1018.7 |
| 20260509011607 | 52 | 140 | 1.7 | 5.2 | 0.00 | 0.00 | 0.00 | 90 | 1018.7 |
| 20260509011108 | 52 | 119 | 2.6 | 5.2 | 0.00 | 0.00 | 0.00 | 90 | 1018.7 |
| 20260509010607 | 52 | 139 | 2.6 | 5.2 | 0.00 | 0.00 | 0.00 | 90 | 1018.7 |
| 20260509010108 | 52 | 142 | 0.9 | 2.6 | 0.00 | 0.00 | 0.00 | 90 | 1018.7 |
| 20260509004607 | 52 | 144 | 2.6 | 6.1 | 0.00 | 0.00 | 0.00 | 91 | 1018.7 |
| 20260509004108 | 53 | 132 | 1.7 | 5.2 | 0.00 | 0.00 | 0.00 | 91 | 1018.8 |
| 20260509003608 | 53 | 128 | 1.7 | 2.6 | 0.00 | 0.00 | 0.00 | 91 | 1018.8 |
| 20260509001106 | 53 | 145 | 0.9 | 5.2 | 0.00 | 0.00 | 0.00 | 91 | 1018.6 |
| 20260509000107 | 53 | 109 | 1.7 | 5.2 | 0.00 | 0.00 | 0.00 | 91 | 1018.6 |
| 20260508234607 | 53 | 104 | 1.7 | 5.2 | 0.00 | 0.00 | 0.00 | 91 | 1018.7 |
| 20260508234108 | 53 | 114 | 1.7 | 2.6 | 0.00 | 0.00 | 0.00 | 91 | 1018.7 |
| 20260508231107 | 53 | 131 | 1.7 | 5.2 | 0.00 | 0.00 | 0.00 | 90 | 1018.8 |
| 20260508230607 | 53 | 125 | 2.6 | 6.1 | 0.00 | 0.00 | 0.00 | 90 | 1018.8 |
| 20260508230108 | 53 | 138 | 1.7 | 6.1 | 0.00 | 0.00 | 0.00 | 90 | 1018.8 |
| 20260508224608 | 53 | 100 | 2.6 | 7.0 | 0.00 | 0.00 | 0.00 | 90 | 1018.7 |
| 20260508224107 | 53 | 73 | 1.7 | 7.8 | 0.00 | 0.00 | 0.00 | 90 | 1018.7 |
| 20260508223607 | 53 | 109 | 1.7 | 7.8 | 0.00 | 0.00 | 0.00 | 90 | 1018.8 |
| 20260508223108 | 53 | 123 | 2.6 | 6.1 | 0.00 | 0.00 | 0.00 | 90 | 1018.7 |
| 20260508221607 | 53 | 114 | 3.5 | 7.8 | 0.00 | 0.00 | 0.00 | 90 | 1018.5 |
| 20260508220607 | 53 | 114 | 4.3 | 8.7 | 0.00 | 0.00 | 0.00 | 90 | 1018.5 |
| 20260508220108 | 53 | 117 | 3.5 | 8.7 | 0.00 | 0.00 | 0.00 | 90 | 1018.5 |
| 20260508213607 | 53 | 133 | 2.6 | 7.8 | 0.00 | 0.00 | 0.00 | 88 | 1018.5 |
| 20260508213107 | 53 | 119 | 4.3 | 7.8 | 0.00 | 0.00 | 0.00 | 88 | 1018.6 |
| 20260508211607 | 53 | 118 | 2.6 | 5.2 | 0.00 | 0.00 | 0.00 | 88 | 1018.5 |
| 20260508211106 | 53 | 124 | 1.7 | 7.0 | 0.00 | 0.00 | 0.00 | 87 | 1018.5 |
| 20260508210108 | 53 | 121 | 2.6 | 7.0 | 0.00 | 0.00 | 0.00 | 87 | 1018.5 |
| 20260508204608 | 54 | 134 | 4.3 | 7.8 | 0.00 | 0.00 | 0.00 | 86 | 1018.4 |
| 20260508204108 | 54 | 113 | 4.3 | 8.7 | 0.00 | 0.00 | 0.00 | 86 | 1018.4 |
| 20260508203607 | 54 | 106 | 5.2 | 8.7 | 0.00 | 0.00 | 0.00 | 86 | 1018.3 |
| 20260508203108 | 54 | 112 | 3.5 | 7.0 | 0.00 | 0.00 | 0.00 | 85 | 1018.3 |
| 20260508201107 | 54 | 88 | 2.6 | 7.0 | 0.00 | 0.00 | 0.00 | 83 | 1018.2 |
| 20260508200607 | 55 | 101 | 3.5 | 7.0 | 0.00 | 0.00 | 0.00 | 83 | 1018.2 |
| 20260508200107 | 55 | 125 | 3.5 | 7.8 | 0.00 | 0.00 | 0.00 | 82 | 1018.2 |
| 20260508194607 | 55 | 115 | 5.2 | 10.4 | 0.00 | 0.00 | 0.00 | 80 | 1017.9 |
| 20260508194107 | 55 | 119 | 5.2 | 11.3 | 0.00 | 0.00 | 0.00 | 79 | 1017.8 |
| 20260508193608 | 55 | 126 | 4.3 | 11.3 | 0.00 | 0.00 | 0.00 | 78 | 1017.7 |
| 20260508193107 | 56 | 113 | 4.3 | 10.4 | 0.00 | 0.00 | 0.00 | 77 | 1017.7 |
| 20260508191608 | 56 | 115 | 7.0 | 11.3 | 0.00 | 0.00 | 0.00 | 74 | 1017.5 |
| 20260508191107 | 56 | 117 | 5.2 | 10.4 | 0.00 | 0.00 | 0.00 | 73 | 1017.4 |
| 20260508190608 | 56 | 119 | 5.2 | 11.3 | 0.00 | 0.00 | 0.00 | 73 | 1017.4 |
| 20260508190107 | 56 | 115 | 4.3 | 12.2 | 0.00 | 0.00 | 0.00 | 71 | 1017.4 |
| 20260508184608 | 56 | 113 | 4.3 | 13.0 | 0.00 | 0.00 | 0.00 | 69 | 1017.2 |
| 20260508184107 | 56 | 133 | 4.3 | 10.4 | 0.00 | 0.00 | 0.00 | 68 | 1017.2 |
| 20260508183607 | 57 | 129 | 4.3 | 11.3 | 0.00 | 0.00 | 0.00 | 67 | 1017.2 |
| 20260508183107 | 57 | 124 | 5.2 | 11.3 | 0.00 | 0.00 | 0.00 | 66 | 1017.2 |
| 20260508181608 | 57 | 112 | 4.3 | 10.4 | 0.00 | 0.00 | 0.00 | 67 | 1017.2 |
| 20260508181108 | 57 | 123 | 6.1 | 11.3 | 0.00 | 0.00 | 0.00 | 67 | 1017.1 |
| 20260508180607 | 58 | 135 | 6.1 | 11.3 | 0.00 | 0.00 | 0.00 | 66 | 1017.2 |
| 20260508180108 | 58 | 136 | 5.2 | 10.4 | 0.00 | 0.00 | 0.00 | 66 | 1017.1 |
| 20260508174607 | 58 | 134 | 6.1 | 11.3 | 0.00 | 0.00 | 0.00 | 66 | 1017.1 |
| 20260508174107 | 58 | 117 | 5.2 | 11.3 | 0.00 | 0.00 | 0.00 | 67 | 1017.1 |
| 20260508173107 | 58 | 128 | 6.1 | 13.0 | 0.00 | 0.00 | 0.00 | 66 | 1017.0 |
| 20260508171607 | 58 | 121 | 5.2 | 12.2 | 0.00 | 0.00 | 0.00 | 66 | 1016.9 |
| 20260508170607 | 57 | 135 | 5.2 | 12.2 | 0.00 | 0.00 | 0.00 | 65 | 1016.8 |
| 20260508170108 | 57 | 128 | 6.1 | 12.2 | 0.00 | 0.00 | 0.00 | 65 | 1016.8 |
| 20260508164107 | 57 | 120 | 3.5 | 12.2 | 0.00 | 0.00 | 0.00 | 65 | 1016.8 |
| 20260508163607 | 57 | 143 | 4.3 | 10.4 | 0.00 | 0.00 | 0.00 | 66 | 1016.7 |
| 20260508163107 | 58 | 126 | 7.0 | 10.4 | 0.00 | 0.00 | 0.00 | 66 | 1016.7 |
| 20260508161607 | 58 | 137 | 4.3 | 10.4 | 0.00 | 0.00 | 0.00 | 66 | 1016.7 |
| 20260508161107 | 58 | 135 | 4.3 | 10.4 | 0.00 | 0.00 | 0.00 | 66 | 1016.7 |
| 20260508160607 | 58 | 130 | 4.3 | 10.4 | 0.00 | 0.00 | 0.00 | 64 | 1016.6 |
| 20260508160107 | 58 | 134 | 6.1 | 10.4 | 0.00 | 0.00 | 0.00 | 63 | 1016.7 |
| 20260508154607 | 59 | 143 | 2.6 | 10.4 | 0.00 | 0.00 | 0.00 | 60 | 1016.7 |
| 20260508154107 | 59 | 126 | 2.6 | 10.4 | 0.00 | 0.00 | 0.00 | 59 | 1016.7 |
| 20260508153607 | 59 | 139 | 4.3 | 12.2 | 0.00 | 0.00 | 0.00 | 58 | 1016.7 |
| 20260508151607 | 59 | 129 | 5.2 | 11.3 | 0.00 | 0.00 | 0.00 | 58 | 1016.7 |
| 20260508151108 | 59 | 131 | 6.1 | 10.4 | 0.00 | 0.00 | 0.00 | 58 | 1016.7 |
| 20260508150607 | 60 | 147 | 4.3 | 10.4 | 0.00 | 0.00 | 0.00 | 59 | 1016.6 |
| 20260508144107 | 60 | 111 | 4.3 | 12.2 | 0.00 | 0.00 | 0.00 | 62 | 1016.5 |
| 20260508143607 | 60 | 130 | 4.3 | 12.2 | 0.00 | 0.00 | 0.00 | 63 | 1016.6 |
| 20260508141607 | 61 | 114 | 6.1 | 12.2 | 0.00 | 0.00 | 0.00 | 62 | 1016.5 |
| 20260508141108 | 61 | 129 | 6.1 | 12.2 | 0.00 | 0.00 | 0.00 | 62 | 1016.5 |
| 20260508140607 | 62 | 143 | 6.1 | 11.3 | 0.00 | 0.00 | 0.00 | 62 | 1016.5 |
| 20260508140107 | 62 | 113 | 6.1 | 11.3 | 0.00 | 0.00 | 0.00 | 61 | 1016.5 |
| 20260508134607 | 62 | 116 | 4.3 | 10.4 | 0.00 | 0.00 | 0.00 | 66 | 1016.5 |
| 20260508133608 | 61 | 125 | 7.0 | 11.3 | 0.00 | 0.00 | 0.00 | 63 | 1016.6 |
| 20260508133107 | 61 | 139 | 6.1 | 12.2 | 0.00 | 0.00 | 0.00 | 63 | 1016.6 |
| 20260508131108 | 62 | 117 | 7.0 | 12.2 | 0.00 | 0.00 | 0.00 | 65 | 1016.6 |
| 20260508130108 | 62 | 124 | 6.1 | 12.2 | 0.00 | 0.00 | 0.00 | 64 | 1016.6 |
| 20260508124607 | 62 | 109 | 5.2 | 11.3 | 0.00 | 0.00 | 0.00 | 65 | 1016.6 |
| 20260508124107 | 62 | 137 | 2.6 | 10.4 | 0.00 | 0.00 | 0.00 | 65 | 1016.7 |
| 20260508123607 | 62 | 132 | 5.2 | 10.4 | 0.00 | 0.00 | 0.00 | 65 | 1016.7 |
| 20260508121607 | 61 | 125 | 5.2 | 12.2 | 0.00 | 0.00 | 0.00 | 65 | 1016.7 |
| 20260508121107 | 62 | 120 | 7.0 | 12.2 | 0.00 | 0.00 | 0.00 | 64 | 1016.7 |
| 20260508120607 | 63 | 124 | 5.2 | 8.7 | 0.00 | 0.00 | 0.00 | 63 | 1016.7 |
| 20260508120107 | 63 | 117 | 4.3 | 10.4 | 0.00 | 0.00 | 0.00 | 64 | 1016.7 |
| 20260508114608 | 63 | 149 | 2.6 | 8.7 | 0.00 | 0.00 | 0.00 | 62 | 1016.7 |
| 20260508114107 | 62 | 79 | 4.3 | 8.7 | 0.00 | 0.00 | 0.00 | 64 | 1016.7 |
| 20260508113607 | 62 | 67 | 2.6 | 7.0 | 0.00 | 0.00 | 0.00 | 65 | 1016.8 |
| 20260508113107 | 62 | 106 | 4.3 | 7.8 | 0.00 | 0.00 | 0.00 | 64 | 1016.8 |
| 20260508111607 | 61 | 112 | 2.6 | 7.8 | 0.00 | 0.00 | 0.00 | 65 | 1016.7 |
| 20260508111107 | 61 | 159 | 1.7 | 5.2 | 0.00 | 0.00 | 0.00 | 66 | 1016.8 |
| 20260508110607 | 61 | 169 | 2.6 | 7.8 | 0.00 | 0.00 | 0.00 | 66 | 1016.8 |
| 20260508110107 | 61 | 199 | 1.7 | 7.8 | 0.00 | 0.00 | 0.00 | 66 | 1016.7 |
| 20260508104607 | 60 | 125 | 4.3 | 7.8 | 0.00 | 0.00 | 0.00 | 69 | 1016.8 |
| 20260508104107 | 60 | 181 | 1.7 | 5.2 | 0.00 | 0.00 | 0.00 | 69 | 1016.8 |
| 20260508103607 | 60 | 215 | 2.6 | 6.1 | 0.00 | 0.00 | 0.00 | 72 | 1016.9 |
| 20260508101607 | 58 | 154 | 1.7 | 7.0 | 0.00 | 0.00 | 0.00 | 77 | 1017.0 |
| 20260508101107 | 58 | 166 | 3.5 | 7.0 | 0.00 | 0.00 | 0.00 | 75 | 1017.0 |
| 20260508100607 | 57 | 158 | 2.6 | 7.0 | 0.00 | 0.00 | 0.00 | 78 | 1017.0 |
| 20260508100108 | 57 | 138 | 4.3 | 7.0 | 0.00 | 0.00 | 0.00 | 78 | 1017.0 |
| 20260508094608 | 55 | 183 | 1.7 | 7.0 | 0.00 | 0.00 | 0.00 | 82 | 1016.9 |
| 20260508094108 | 55 | 222 | 1.7 | 7.0 | 0.00 | 0.00 | 0.00 | 82 | 1017.0 |
| 20260508093107 | 55 | 174 | 0.9 | 6.1 | 0.00 | 0.00 | 0.00 | 83 | 1016.9 |
| 20260508091607 | 54 | 160 | 0.9 | 2.6 | 0.00 | 0.00 | 0.00 | 85 | 1017.0 |
| 20260508091107 | 54 | 168 | 1.7 | 5.2 | 0.00 | 0.00 | 0.00 | 85 | 1017.0 |
| 20260508090107 | 53 | 172 | 2.6 | 5.2 | 0.00 | 0.00 | 0.00 | 86 | 1017.0 |
| 20260508084608 | 52 | 187 | 0.9 | 4.3 | 0.00 | 0.00 | 0.00 | 88 | 1017.0 |
| 20260508084108 | 52 | 159 | 1.7 | 4.3 | 0.00 | 0.00 | 0.00 | 87 | 1017.0 |
| 20260508083607 | 52 | 150 | 1.7 | 4.3 | 0.00 | 0.00 | 0.00 | 88 | 1017.0 |
| 20260508083107 | 52 | 171 | 1.7 | 4.3 | 0.00 | 0.00 | 0.00 | 88 | 1016.9 |
| 20260508081607 | 51 | 160 | 1.7 | 6.1 | 0.00 | 0.00 | 0.00 | 88 | 1016.8 |
| 20260508081107 | 51 | 151 | 3.5 | 7.0 | 0.00 | 0.00 | 0.00 | 89 | 1016.8 |
| 20260508080108 | 51 | 166 | 2.6 | 7.0 | 0.00 | 0.00 | 0.00 | 90 | 1016.7 |
| 20260508073607 | 51 | 143 | 0.9 | 2.6 | 0.00 | 0.00 | 0.00 | 89 | 1016.7 |
| 20260508073107 | 50 | 165 | 0.9 | 2.6 | 0.00 | 0.00 | 0.00 | 89 | 1016.6 |
| 20260508071607 | 50 | 156 | 1.7 | 4.3 | 0.00 | 0.00 | 0.00 | 89 | 1016.6 |
| 20260508071106 | 50 | 169 | 0.9 | 4.3 | 0.00 | 0.00 | 0.00 | 89 | 1016.6 |
| 20260508070608 | 50 | 210 | 0.9 | 2.6 | 0.00 | 0.00 | 0.00 | 89 | 1016.5 |
| 20260508064607 | 50 | 174 | 0.9 | 2.6 | 0.00 | 0.00 | 0.00 | 88 | 1016.3 |
| 20260508063607 | 50 | 142 | 0.9 | 2.6 | 0.00 | 0.00 | 0.00 | 87 | 1016.2 |
| 20260508063107 | 50 | 130 | 0.9 | 2.6 | 0.00 | 0.00 | 0.00 | 87 | 1016.2 |
| 20260508061607 | 50 | 162 | 1.7 | 4.3 | 0.00 | 0.00 | 0.00 | 88 | 1016.0 |
| 20260508061107 | 50 | 154 | 1.7 | 4.3 | 0.00 | 0.00 | 0.00 | 87 | 1016.0 |
| 20260508060607 | 50 | 140 | 0.9 | 2.6 | 0.00 | 0.00 | 0.00 | 88 | 1016.0 |
| 20260508054106 | 50 | 166 | 0.9 | 2.6 | 0.00 | 0.00 | 0.00 | 88 | 1015.8 |
| 20260508053607 | 50 | 122 | 1.7 | 2.6 | 0.00 | 0.00 | 0.00 | 88 | 1015.8 |
| 20260508051607 | 49 | 159 | 1.7 | 6.1 | 0.00 | 0.00 | 0.00 | 88 | 1015.6 |
| 20260508051107 | 49 | 160 | 0.9 | 2.6 | 0.00 | 0.00 | 0.00 | 88 | 1015.6 |
| 20260508050607 | 49 | 162 | 0.9 | 2.6 | 0.00 | 0.00 | 0.00 | 87 | 1015.7 |